星链-3096 (STARLINK-3096 )

导读

STARLINK-3096是美国太空探索技术公司Starlink卫星互联网星座的一员,于2021年9月14日发射升空。该星属于低轨通信卫星,旨在为全球提供高速卫星互联网接入服务,目前已在轨运行近四年半,持续为地面用户提供网络信号覆盖,助力偏远地区网络连接,并支撑星座组网服务。

Basic Information
目录编号:
49131
目录名称:
STARLINK-3096
国际标识:
2021-082B
轨道中心:
EARTH
卫星名称:
星链-3096
卫星全名:
星链-3096 (STARLINK-3096 )
卫星状态:
已陨落 最后检测时间 2026-05-20
发射日期:
2021-09-14 UTC
国别 :
美国 (US)
星等 :
--
Orbit Information
数据来源 国际轨道数据
星历时间: 2026-05-20T16:56:54+0800
轨道信息已过期29天
半长轴: 6518.34km
偏心率: 0.0013907
轨道倾角: 69.987°
近地点辐角 243.669°
升交点赤经 49.922°
平近点角 116.312°
近地点: 131.137km
远地点: 149.269km
周期: 87.290分钟
每日圈数: 16.49671
Detailed Information
固有亮度:
5
最大亮度:
2.5
卫星平台:
Starlink v1.5
覆盖范围:
全球
运营商:
太空探索技术公司
运营商所在国:
美国
制造商(研发单位):
太空探索技术公司
制造商所在国:
美国
使用方式:
暂无
Satellite Introduction
星链(Starlink)计划是由太空探索技术公司(SpaceX)提出的一个巨型低轨卫星互联网星座项目,计划在2019年至2024年间在太空搭建由约1.2万颗卫星组成的“星链”网络,其中1584颗将部署在地球上空550千米处的近地轨道,并从2020年开始工作。该卫星仍在工作。